TimeAKDT,TemperatureF,Dew PointF,Humidity,Sea Level PressureIn,VisibilityMPH,Wind Direction,Wind SpeedMPH,Gust SpeedMPH,PrecipitationIn,Events,Conditions,WindDirDegrees,DateUTC
12:53 AM,60.1,54.0,80,30.16,10.0,Calm,Calm,-,N/A,,Clear,0,2013-07-31 08:53:00
1:53 AM,57.0,53.1,87,30.17,10.0,Calm,Calm,-,N/A,,Clear,0,2013-07-31 09:53:00
2:53 AM,57.0,52.0,83,30.17,10.0,NE,4.6,-,N/A,,Clear,40,2013-07-31 10:53:00
3:53 AM,55.9,52.0,87,30.18,10.0,Calm,Calm,-,N/A,,Clear,0,2013-07-31 11:53:00
4:53 AM,54.0,51.1,90,30.18,10.0,Calm,Calm,-,N/A,,Clear,0,2013-07-31 12:53:00
5:53 AM,54.0,51.1,90,30.18,10.0,NE,3.5,-,N/A,,Clear,40,2013-07-31 13:53:00
6:53 AM,55.0,51.1,86,30.19,10.0,NE,3.5,-,N/A,,Clear,50,2013-07-31 14:53:00
7:53 AM,55.9,53.1,90,30.18,10.0,Calm,Calm,-,N/A,,Clear,0,2013-07-31 15:53:00
8:53 AM,54.0,50.0,86,30.19,10.0,SW,3.5,-,N/A,,Clear,220,2013-07-31 16:53:00
9:53 AM,57.0,52.0,83,30.17,10.0,SW,3.5,-,N/A,,Clear,220,2013-07-31 17:53:00
10:53 AM,59.0,52.0,78,30.15,10.0,WSW,3.5,-,N/A,,Clear,250,2013-07-31 18:53:00
11:53 AM,60.1,53.1,78,30.14,10.0,WSW,4.6,-,N/A,,Clear,250,2013-07-31 19:53:00
12:53 PM,62.1,53.1,72,30.11,10.0,SW,9.2,-,N/A,,Clear,220,2013-07-31 20:53:00
1:53 PM,66.9,54.0,63,30.09,10.0,SSW,16.1,23.0,N/A,,Clear,210,2013-07-31 21:53:00
2:53 PM,64.9,53.1,65,30.07,10.0,SW,18.4,24.2,N/A,,Clear,230,2013-07-31 22:53:00
3:53 PM,66.0,54.0,65,30.05,10.0,SW,21.9,27.6,N/A,,Clear,220,2013-07-31 23:53:00
4:53 PM,64.0,53.1,67,30.04,10.0,SW,19.6,-,N/A,,Clear,230,2013-08-01 00:53:00
5:53 PM,64.9,54.0,68,30.04,10.0,WSW,17.3,-,N/A,,Clear,240,2013-08-01 01:53:00
6:53 PM,64.9,54.0,68,30.03,10.0,SW,9.2,18.4,N/A,,Clear,230,2013-08-01 02:53:00
7:53 PM,66.0,53.1,63,30.03,10.0,Variable,3.5,-,N/A,,Clear,0,2013-08-01 03:53:00
8:53 PM,64.9,54.0,68,30.04,10.0,Calm,Calm,-,N/A,,Clear,0,2013-08-01 04:53:00
9:53 PM,64.0,54.0,70,30.04,10.0,NNE,3.5,-,N/A,,Clear,20,2013-08-01 05:53:00
10:53 PM,62.1,54.0,75,30.05,10.0,Calm,Calm,-,N/A,,Clear,0,2013-08-01 06:53:00
11:53 PM,60.1,54.0,80,30.06,10.0,NNE,4.6,-,N/A,,Clear,30,2013-08-01 07:53:00